Location: Maiden
(35.5760°N, 81.2120°W)
Time: 21:06:32
(UTC-04:00)

Vanguard 2 - Pass Details

Date: 08 August 2021
Orbit: 552 x 2937 km, 32.9° (Epoch: 24 September)

Event Time Altitude Azimuth Distance (km) Brightness Sun altitude
Exits shadow 04:17:41 33° 118° (ESE) 938 8.1 -25.0°
Drops below altitude 10° 04:20:08 10° 95° (E) 1,824 10.0 -24.6°
Sets 04:22:25 0° 89° (E) 2,771 11.1 -24.3°
